Погода в Букобе

Танзания     1°19′58″S   31°48′47″E
темп.,
°C
ветер,
м/с
пор.,
м/с
влажн.,
%
обл.,
%
осадки,
мм/ч
давл.,
гПа
погр.,
м
19 мая, ср
ср1900:00+17з21950 0.0 101417
03:00+17зюз119441 0.0 101412
06:00+16зюз219796 0.6 101525
09:00+20ююз3689100 0.8 1016268
12:00+24ююв4667100 0.6 1014960
15:00+24ююв456948 0.8 1012873
18:00+21ююв249072 1.5 1013174
21:00+18ююз1194100 1.6 101514
20 мая, чт
чт2000:00+17зюз1194100 0.2 101511
03:00+16з229793 0.4 101427
06:00+16юз1196100 0.1 101516
09:00+20юз1289100 0.7 1016148
12:00+23ю2477100 1.1 1015619
15:00+25ююв3463100 1.2 1012986
18:00+22ююв248158 0.0 1013163
21:00+18ю118772 0.0 101511
21 мая, пт
пт2100:00+17зюз119183 0.0 101512
03:00+16зюз229446 0.0 101425
06:00+17зюз119412 0.0 101512
09:00+22юз127881 0.0 1016186
12:00+25ююв3463100 0.6 10151034
15:00+24ююв346934 2.3 1013590
18:00+22ююв12828 0.3 101355
21:00+18ююз23905 0.3 101445
22 мая, сб
сб2200:00+17з11921 0.0 101514
03:00+17зюз11945 0.0 101415
06:00+16з229513 0.0 101518
09:00+21зюз22805 0.0 1017196
12:00+26ююв33605 0.2 10141104
15:00+25ююв436161 0.3 10121083
18:00+22ююв23815 0.4 1013173
21:00+19ююз12835 0.4 101413
23 мая, вс
вс2300:00+17зюз11895 0.0 101516
03:00+17юз21935 0.4 101415
06:00+16зюз21955 0.0 101516
09:00+21юз23825 0.0 1016181
12:00+25ююв46615 1.1 10151031
15:00+25ююв56645 1.4 10131007
18:00+22ююв25805 0.4 1013224
21:00+18ююз22875 0.5 101525